Weather History for Crestview, FL

Change the Weather History Date:

Saturday, March 9, 2013

  Actual Average Record
Temperature  
Mean Temperature 54 °F -  
Max Temperature 68 °F - - ()
Min Temperature 41 °F - - ()
Degree Days  
Heating Degree Days 10    
Growing Degree Days 4 (Base 50)    
Moisture  
Dew Point 42 °F    
Average Humidity 61    
Maximum Humidity 93    
Minimum Humidity 35    
Precipitation  
Precipitation 0.00 in - - ()
Sea Level Pressure  
Sea Level Pressure 30.19 in    
Wind  
Wind Speed 5 mph (SE)    
Max Wind Speed 14 mph    
Max Gust Speed -    
Visibility 10 miles    
Events      
T = Trace of Precipitation, MM = Missing Value Source: NWS Daily Summary

Daily Weather History Graph

Daily Weather History Graph

Search for Another Location

Airport:

Trip Planner

Search our weather history database for the weather conditions in past years. The results will help you decide how hot, cold, wet, or windy it might be!

Date:

Astronomy

Mar. 09, 2013 Rise Set
Actual Time 6:02 AM CST 5:50 PM CST
Civil Twilight 5:38 AM CST 6:14 PM CST
Nautical Twilight 5:11 AM CST 6:42 PM CST
Astronomical Twilight 4:43 AM CST 7:10 PM CST
Moon 4:19 AM CST (3/9) 3:57 PM CST (3/9)
Length of Visible Light 12h 35m
Length of Day
11h 47m
Waning Crescent, 5% of the Moon is Illuminated
Mar 9
Waning Crescent
Mar 11
New
Mar 19
First Quarter
Mar 27
Full
Apr 2
Last Quarter

Hourly Weather History & Observations

Time (CST) Temp. Windchill Dew Point Humidity Pressure Visibility Wind Dir Wind Speed Gust Speed Precip Events Conditions
12:58 AM 42.8 °F - 39.2 °F 87% 30.20 in 10.0 mi Calm Calm - N/A   Clear
1:58 AM 41.0 °F - 39.2 °F 93% 30.20 in 10.0 mi Calm Calm - N/A   Clear
2:58 AM 41.0 °F - 39.2 °F 93% 30.18 in 10.0 mi Calm Calm - N/A   Scattered Clouds
3:58 AM 42.8 °F - 39.2 °F 87% 30.19 in 10.0 mi SSW 1.2 mph - N/A   Scattered Clouds
4:58 AM 41.0 °F - 37.4 °F 87% 30.19 in 10.0 mi East 2.3 mph - N/A   Mostly Cloudy
5:58 AM 46.4 °F 44.3 °F 37.4 °F 71% 30.20 in 10.0 mi East 4.6 mph - N/A   Partly Cloudy
6:58 AM 53.6 °F - 37.4 °F 54% 30.21 in 10.0 mi ESE 8.1 mph - N/A   Mostly Cloudy
7:58 AM 57.2 °F - 37.4 °F 48% 30.24 in 10.0 mi ESE 5.8 mph - N/A   Mostly Cloudy
8:58 AM 62.6 °F - 37.4 °F 39% 30.24 in 10.0 mi SE 9.2 mph - N/A   Clear
9:58 AM 66.2 °F - 41.0 °F 40% 30.25 in 10.0 mi ESE 10.4 mph - N/A   Clear
10:28 AM 68.0 °F - 39.2 °F 35% 30.24 in 10.0 mi ESE 11.5 mph - N/A   Clear
10:58 AM 68.0 °F - 41.0 °F 37% 30.25 in 10.0 mi ESE 11.5 mph - N/A   Clear
11:58 AM 68.0 °F - 44.6 °F 43% 30.22 in 10.0 mi SSE 10.4 mph - N/A   Clear
12:58 PM 68.0 °F - 41.0 °F 37% 30.20 in 10.0 mi SE 9.2 mph - N/A   Clear
1:58 PM 68.0 °F - 44.6 °F 43% 30.19 in 10.0 mi SSW 13.8 mph - N/A   Partly Cloudy
2:58 PM 66.2 °F - 42.8 °F 43% 30.19 in 10.0 mi South 13.8 mph - N/A   Mostly Cloudy
3:58 PM 66.2 °F - 42.8 °F 43% 30.18 in 8.0 mi SSE 9.2 mph - N/A   Partly Cloudy
4:58 PM 64.4 °F - 44.6 °F 49% 30.18 in 6.0 mi South 8.1 mph - N/A   Haze
5:58 PM 59.0 °F - 46.4 °F 63% 30.18 in 9.0 mi SSE 5.8 mph - N/A   Clear
6:58 PM 55.4 °F - 46.4 °F 72% 30.17 in 10.0 mi SSE 5.8 mph - N/A   Clear
7:58 PM 57.2 °F - 50.0 °F 77% 30.16 in 10.0 mi SSE 6.9 mph - N/A   Clear
8:58 PM 57.7 °F - 49.6 °F 74% 30.15 in 10.0 mi SE 6.9 mph - N/A   Partly Cloudy
9:58 PM 55.4 °F - 46.4 °F 72% 30.15 in 10.0 mi SSE 4.6 mph - N/A   Overcast
10:58 PM 55.4 °F - 44.6 °F 67% 30.12 in 10.0 mi SE 5.8 mph - N/A   Overcast
11:58 PM 57.2 °F - 42.8 °F 59% 30.11 in 10.0 mi ESE 6.9 mph - N/A   Partly Cloudy